UAE55V OMDB-HUEN

Flight info

Callsign UAE55V
Flight time 4h 52m
Altitude 39000
Route ANVIX R401 GIDIS G783 UKRAG L710 KUKDI/N0487F400 B400 RIGAM B404 DEMGO UB404 HARGA UM216 IMVIP IMVIP2C
Aircraft A359/H-SDE2E3GHIJ3J4J5LM1ORWXY/LB1D1

Departure

Time 2026-05-09 08:59
Airport Dubai International Airport (OMDB)

Arrival

Time 2026-05-09 13:52
Airport Entebbe International Airport (HUEN)
Time Latitude Longitude Altitude Speed Heading
2026-05-09 08:08 25.24810 55.36014 28 ft 0 kts 32°
2026-05-09 08:42 25.24800 55.36006 27 ft 4 kts 32°
2026-05-09 08:42 25.24777 55.35990 28 ft 3 kts 32°
2026-05-09 08:42 25.24759 55.35977 27 ft 4 kts 32°
2026-05-09 08:43 25.24742 55.35964 26 ft 4 kts 352°
2026-05-09 08:43 25.24741 55.35967 26 ft 4 kts 287°
2026-05-09 08:43 25.24731 55.35992 27 ft 4 kts 298°
2026-05-09 08:43 25.24718 55.36019 26 ft 4 kts 300°
2026-05-09 08:44 25.24714 55.36027 26 ft 4 kts 301°
2026-05-09 08:47 25.24715 55.36025 26 ft 1 kts 300°
2026-05-09 08:47 25.24725 55.36004 27 ft 5 kts 300°
2026-05-09 08:48 25.24752 55.35954 26 ft 11 kts 301°
2026-05-09 08:48 25.24801 55.35864 28 ft 17 kts 301°
2026-05-09 08:48 25.24870 55.35746 28 ft 19 kts 304°
2026-05-09 08:48 25.24942 55.35628 28 ft 19 kts 303°
2026-05-09 08:49 25.25012 55.35508 28 ft 19 kts 301°
2026-05-09 08:49 25.25081 55.35385 28 ft 19 kts 301°
2026-05-09 08:49 25.25155 55.35269 28 ft 19 kts 306°
2026-05-09 08:49 25.25227 55.35150 28 ft 19 kts 302°
2026-05-09 08:50 25.25292 55.35030 28 ft 19 kts 300°
2026-05-09 08:50 25.25363 55.34915 28 ft 18 kts 319°
2026-05-09 08:50 25.25474 55.34909 28 ft 17 kts 28°
2026-05-09 08:50 25.25572 55.34974 28 ft 14 kts 31°
2026-05-09 08:51 25.25597 55.34991 28 ft 2 kts 31°
2026-05-09 08:51 25.25653 55.35045 28 ft 16 kts 61°
2026-05-09 08:51 25.25672 55.35148 28 ft 14 kts 55°
2026-05-09 08:51 25.25748 55.35210 28 ft 14 kts 30°
2026-05-09 08:52 25.25837 55.35266 28 ft 15 kts 31°
2026-05-09 08:52 25.25931 55.35330 28 ft 16 kts 36°
2026-05-09 08:52 25.25991 55.35436 28 ft 17 kts 80°
2026-05-09 08:52 25.25968 55.35568 28 ft 19 kts 118°
2026-05-09 08:53 25.25900 55.35691 28 ft 19 kts 121°
2026-05-09 08:53 25.25832 55.35813 28 ft 19 kts 122°
2026-05-09 08:53 25.25762 55.35934 28 ft 19 kts 122°
2026-05-09 08:53 25.25695 55.36057 28 ft 19 kts 120°
2026-05-09 08:54 25.25628 55.36181 28 ft 19 kts 121°
2026-05-09 08:54 25.25560 55.36304 28 ft 19 kts 122°
2026-05-09 08:54 25.25492 55.36426 28 ft 19 kts 121°
2026-05-09 08:54 25.25425 55.36548 28 ft 19 kts 122°
2026-05-09 08:55 25.25355 55.36671 28 ft 19 kts 122°
2026-05-09 08:55 25.25309 55.36753 28 ft 19 kts 122°
2026-05-09 08:55 25.25240 55.36876 28 ft 19 kts 121°
2026-05-09 08:55 25.25173 55.37000 28 ft 19 kts 121°
2026-05-09 08:56 25.25104 55.37123 28 ft 19 kts 122°
2026-05-09 08:56 25.25036 55.37247 28 ft 19 kts 121°
2026-05-09 08:56 25.24967 55.37371 28 ft 19 kts 121°
2026-05-09 08:56 25.24899 55.37496 28 ft 19 kts 121°
2026-05-09 08:57 25.24831 55.37619 28 ft 19 kts 121°
2026-05-09 08:57 25.24762 55.37743 28 ft 19 kts 121°
2026-05-09 08:57 25.24694 55.37867 28 ft 19 kts 121°
2026-05-09 08:57 25.24722 55.37979 28 ft 17 kts 33°
2026-05-09 08:58 25.24820 55.37980 28 ft 15 kts 315°
2026-05-09 08:58 25.24858 55.37926 28 ft 0 kts 301°
2026-05-09 08:58 25.24927 55.37802 28 ft 51 kts 302°
2026-05-09 08:59 25.25227 55.37265 28 ft 112 kts 302°
2026-05-09 08:59 25.25736 55.36354 29 ft 164 kts 301°
2026-05-09 08:59 25.26387 55.35184 393 ft 183 kts 303°
2026-05-09 08:59 25.27072 55.34020 1212 ft 178 kts 302°
2026-05-09 09:00 25.27766 55.32900 1829 ft 179 kts 302°
2026-05-09 09:00 25.28470 55.31722 2278 ft 188 kts 303°
2026-05-09 09:00 25.29087 55.30392 2629 ft 203 kts 289°
2026-05-09 09:00 25.29213 55.28790 2993 ft 220 kts 262°
2026-05-09 09:01 25.28691 55.27203 3536 ft 226 kts 248°
2026-05-09 09:01 25.28150 55.25970 3852 ft 227 kts 247°
2026-05-09 09:01 25.27457 55.24408 3977 ft 227 kts 247°
2026-05-09 09:01 25.26767 55.22838 4001 ft 227 kts 247°
2026-05-09 09:02 25.26084 55.21261 4250 ft 229 kts 248°
2026-05-09 09:02 25.25399 55.19665 4856 ft 230 kts 248°
2026-05-09 09:02 25.24618 55.18132 5588 ft 230 kts 236°
2026-05-09 09:02 25.23371 55.17014 6293 ft 239 kts 209°
2026-05-09 09:03 25.21695 55.16670 6847 ft 253 kts 183°
2026-05-09 09:03 25.19923 55.16908 7465 ft 262 kts 168°
2026-05-09 09:03 25.18310 55.17884 8061 ft 273 kts 140°
2026-05-09 09:03 25.17158 55.19622 8548 ft 289 kts 121°
2026-05-09 09:04 25.16225 55.21619 9185 ft 294 kts 120°
2026-05-09 09:04 25.15301 55.23634 9918 ft 295 kts 121°
2026-05-09 09:04 25.14360 55.25649 10607 ft 296 kts 121°
2026-05-09 09:04 25.13407 55.27665 11316 ft 298 kts 120°
2026-05-09 09:05 25.12441 55.29698 12069 ft 299 kts 121°
2026-05-09 09:05 25.11470 55.31723 12831 ft 299 kts 121°
2026-05-09 09:05 25.10506 55.33732 13590 ft 301 kts 121°
2026-05-09 09:05 25.09603 55.35831 14229 ft 305 kts 117°
2026-05-09 09:06 25.08741 55.37979 14849 ft 308 kts 117°
2026-05-09 09:06 25.07865 55.40156 15472 ft 311 kts 117°
2026-05-09 09:06 25.06976 55.42349 16085 ft 315 kts 117°
2026-05-09 09:06 25.06146 55.44488 16420 ft 329 kts 116°
2026-05-09 09:07 25.05193 55.46997 16736 ft 343 kts 116°
2026-05-09 09:07 25.04250 55.49470 17041 ft 356 kts 116°
2026-05-09 09:07 25.03271 55.52022 17322 ft 368 kts 116°
2026-05-09 09:07 25.02240 55.54660 17580 ft 379 kts 118°
2026-05-09 09:08 25.00984 55.57254 17820 ft 388 kts 123°
2026-05-09 09:08 24.99595 55.59845 18048 ft 398 kts 124°
2026-05-09 09:08 24.98159 55.62489 18351 ft 404 kts 124°
2026-05-09 09:08 24.96706 55.65170 18688 ft 408 kts 124°
2026-05-09 09:09 24.95264 55.67833 19055 ft 412 kts 124°
2026-05-09 09:09 24.93721 55.70505 19400 ft 414 kts 128°
2026-05-09 09:09 24.92045 55.73090 19786 ft 416 kts 129°
2026-05-09 09:09 24.90331 55.75672 20165 ft 419 kts 129°
2026-05-09 09:10 24.88601 55.78272 20564 ft 422 kts 129°
2026-05-09 09:10 24.86859 55.80894 20928 ft 425 kts 129°
2026-05-09 09:10 24.85108 55.83530 21334 ft 428 kts 129°
2026-05-09 09:10 24.83342 55.86189 21705 ft 431 kts 129°
2026-05-09 09:11 24.81497 55.88792 22047 ft 432 kts 134°
2026-05-09 09:11 24.79277 55.91019 22451 ft 429 kts 147°
2026-05-09 09:11 24.76715 55.92597 22796 ft 428 kts 160°
2026-05-09 09:11 24.73844 55.93475 23143 ft 428 kts 173°
2026-05-09 09:12 24.70878 55.93729 23500 ft 429 kts 180°
2026-05-09 09:12 24.67883 55.93743 23830 ft 430 kts 182°
2026-05-09 09:12 24.64886 55.93540 24144 ft 432 kts 189°
2026-05-09 09:12 24.61935 55.92863 24415 ft 434 kts 198°
2026-05-09 09:13 24.59125 55.91657 24760 ft 436 kts 207°
2026-05-09 09:13 24.56535 55.89913 25117 ft 437 kts 217°
2026-05-09 09:13 24.54147 55.87840 25512 ft 440 kts 220°
2026-05-09 09:13 24.51814 55.85644 25900 ft 443 kts 221°
2026-05-09 09:14 24.49508 55.83392 26306 ft 445 kts 222°
2026-05-09 09:14 24.47202 55.81118 26745 ft 446 kts 222°
2026-05-09 09:14 24.44879 55.78833 27151 ft 449 kts 222°
2026-05-09 09:14 24.42568 55.76578 27561 ft 452 kts 222°
2026-05-09 09:15 24.40174 55.74260 27959 ft 455 kts 222°
2026-05-09 09:15 24.37819 55.71991 28365 ft 457 kts 222°
2026-05-09 09:15 24.35421 55.69692 28745 ft 460 kts 222°
2026-05-09 09:15 24.33005 55.67379 29128 ft 462 kts 222°
2026-05-09 09:16 24.30574 55.65049 29508 ft 465 kts 222°
2026-05-09 09:16 24.25245 55.60946 30103 ft 474 kts 208°
2026-05-09 09:16 24.22183 55.59560 30385 ft 479 kts 200°
2026-05-09 09:17 24.18994 55.58463 30676 ft 482 kts 199°
2026-05-09 09:17 24.15749 55.57457 30964 ft 484 kts 198°
2026-05-09 09:17 24.12495 55.56502 31241 ft 486 kts 197°
2026-05-09 09:17 24.09219 55.55557 31499 ft 488 kts 197°
2026-05-09 09:18 24.05935 55.54606 31765 ft 489 kts 197°
2026-05-09 09:18 24.02645 55.53645 32113 ft 489 kts 197°
2026-05-09 09:18 23.99369 55.52682 32506 ft 487 kts 197°
2026-05-09 09:18 23.96103 55.51719 32906 ft 485 kts 198°
2026-05-09 09:19 23.92845 55.50753 33268 ft 484 kts 198°
2026-05-09 09:19 23.89632 55.49798 33615 ft 483 kts 198°
2026-05-09 09:19 23.86391 55.48835 33958 ft 483 kts 198°
2026-05-09 09:19 23.83155 55.47876 34277 ft 481 kts 198°
2026-05-09 09:20 23.79929 55.46920 34614 ft 479 kts 198°
2026-05-09 09:20 23.76719 55.45966 34970 ft 477 kts 198°
2026-05-09 09:20 23.73525 55.45016 35299 ft 475 kts 198°
2026-05-09 09:20 23.70451 55.44102 35581 ft 473 kts 198°
2026-05-09 09:21 23.67164 55.43126 35902 ft 472 kts 198°
2026-05-09 09:21 23.64002 55.42188 36214 ft 470 kts 198°
2026-05-09 09:21 23.60845 55.41253 36503 ft 469 kts 198°
2026-05-09 09:21 23.57697 55.40326 36786 ft 468 kts 197°
2026-05-09 09:22 23.54503 55.39630 37055 ft 470 kts 190°
2026-05-09 09:22 23.51235 55.39388 37309 ft 472 kts 183°
2026-05-09 09:22 23.47953 55.39670 37571 ft 475 kts 174°
2026-05-09 09:22 23.44711 55.40391 37831 ft 477 kts 171°
2026-05-09 09:23 23.41484 55.41257 38036 ft 477 kts 169°
2026-05-09 09:23 23.38284 55.42225 38270 ft 477 kts 168°
2026-05-09 09:23 23.35101 55.43264 38501 ft 477 kts 167°
2026-05-09 09:23 23.31929 55.44320 38681 ft 476 kts 167°
2026-05-09 09:24 23.28769 55.45366 38850 ft 476 kts 167°
2026-05-09 09:24 23.25588 55.46403 38869 ft 476 kts 168°
2026-05-09 09:24 23.19249 55.48428 38859 ft 475 kts 168°
2026-05-09 09:25 23.12899 55.50429 38869 ft 475 kts 168°
2026-05-09 09:25 23.06589 55.52411 38867 ft 475 kts 168°
2026-05-09 09:26 23.00224 55.54408 38870 ft 475 kts 168°
2026-05-09 09:26 22.93858 55.56361 38856 ft 475 kts 168°
2026-05-09 09:27 22.87483 55.58304 38861 ft 476 kts 168°
2026-05-09 09:27 22.81110 55.60253 38862 ft 476 kts 168°
2026-05-09 09:28 22.74745 55.62203 38858 ft 476 kts 168°
2026-05-09 09:28 22.68411 55.64142 38848 ft 476 kts 168°
2026-05-09 09:29 22.62045 55.66089 38854 ft 475 kts 168°
2026-05-09 09:29 22.55677 55.68044 38851 ft 475 kts 168°
2026-05-09 09:30 22.49305 55.69991 38844 ft 475 kts 168°
2026-05-09 09:30 22.42927 55.71938 38842 ft 475 kts 168°
2026-05-09 09:31 22.36563 55.73881 38840 ft 475 kts 168°
2026-05-09 09:32 22.27008 55.76732 38836 ft 473 kts 172°
2026-05-09 09:32 22.20551 55.77691 38836 ft 470 kts 177°
2026-05-09 09:33 22.14040 55.78363 38832 ft 470 kts 178°
2026-05-09 09:33 22.07518 55.78985 38836 ft 470 kts 178°
2026-05-09 09:34 22.00990 55.79618 38835 ft 471 kts 178°
2026-05-09 09:34 21.94469 55.80262 38835 ft 471 kts 178°
2026-05-09 09:36 21.68411 55.82848 38834 ft 471 kts 177°
2026-05-09 09:37 21.61882 55.83492 38832 ft 471 kts 177°
2026-05-09 09:37 21.55362 55.84128 38833 ft 470 kts 177°
2026-05-09 09:38 21.48839 55.84766 38834 ft 471 kts 177°
2026-05-09 09:38 21.42318 55.85405 38834 ft 471 kts 177°
2026-05-09 09:39 21.35798 55.86044 38829 ft 470 kts 177°
2026-05-09 09:39 21.29278 55.86682 38829 ft 470 kts 177°
2026-05-09 09:40 21.22756 55.87324 38829 ft 470 kts 177°
2026-05-09 09:40 21.16238 55.87958 38826 ft 470 kts 177°
2026-05-09 09:41 21.09715 55.88589 38819 ft 470 kts 177°
2026-05-09 09:41 21.04299 55.89115 38833 ft 470 kts 177°
2026-05-09 09:42 20.96724 55.89851 38834 ft 470 kts 177°
2026-05-09 09:42 20.91263 55.90381 38821 ft 470 kts 177°
2026-05-09 09:43 20.84748 55.91016 38814 ft 470 kts 177°
2026-05-09 09:43 20.78272 55.91646 38826 ft 470 kts 177°
2026-05-09 09:44 20.71761 55.92275 38818 ft 470 kts 177°
2026-05-09 09:44 20.65250 55.92903 38817 ft 470 kts 177°
2026-05-09 09:45 20.58736 55.93533 38828 ft 470 kts 177°
2026-05-09 09:45 20.52218 55.94163 38823 ft 470 kts 176°
2026-05-09 09:46 20.45709 55.94792 38833 ft 470 kts 176°
2026-05-09 09:46 20.39200 55.95421 38820 ft 470 kts 176°
2026-05-09 09:47 20.32694 55.96048 38837 ft 470 kts 176°
2026-05-09 09:47 20.26210 55.96681 38823 ft 470 kts 176°
2026-05-09 09:48 20.19701 55.97296 38834 ft 470 kts 176°
2026-05-09 09:48 20.13190 55.97909 38834 ft 470 kts 176°
2026-05-09 09:49 20.06678 55.98516 38821 ft 469 kts 178°
2026-05-09 09:49 20.00155 55.98744 38834 ft 468 kts 181°
2026-05-09 09:50 19.93638 55.98799 38830 ft 468 kts 181°
2026-05-09 09:50 19.87151 55.98900 38837 ft 468 kts 180°
2026-05-09 09:51 19.80631 55.99049 38835 ft 468 kts 180°
2026-05-09 09:51 19.74116 55.99215 38836 ft 468 kts 180°
2026-05-09 09:52 19.67591 55.99381 38841 ft 468 kts 180°
2026-05-09 09:52 19.61077 55.99545 38838 ft 468 kts 180°
2026-05-09 09:53 19.54567 55.99560 38852 ft 467 kts 186°
2026-05-09 09:53 19.48258 55.98064 39104 ft 465 kts 202°
2026-05-09 09:53 19.45324 55.96611 39253 ft 464 kts 207°
2026-05-09 09:54 19.42479 55.94985 39393 ft 464 kts 209°
2026-05-09 09:54 19.39670 55.93291 39536 ft 464 kts 210°
2026-05-09 09:54 19.36887 55.91575 39691 ft 463 kts 210°
2026-05-09 09:54 19.34138 55.89875 39808 ft 463 kts 210°
2026-05-09 09:55 19.31353 55.88159 39841 ft 463 kts 210°
2026-05-09 09:55 19.25774 55.84752 39844 ft 463 kts 209°
2026-05-09 09:56 19.20196 55.81374 39844 ft 463 kts 209°
2026-05-09 09:56 19.14585 55.77985 39849 ft 463 kts 209°
2026-05-09 09:57 19.08992 55.74609 39848 ft 463 kts 209°
2026-05-09 09:57 19.03394 55.71231 39849 ft 463 kts 209°
2026-05-09 09:58 18.97800 55.67859 39851 ft 463 kts 209°
2026-05-09 09:58 18.92229 55.64502 39851 ft 463 kts 209°
2026-05-09 09:59 18.86619 55.61125 39851 ft 463 kts 209°
2026-05-09 09:59 18.81034 55.57765 39855 ft 463 kts 209°
2026-05-09 10:00 18.75432 55.54399 39853 ft 463 kts 209°
2026-05-09 10:00 18.69975 55.51121 39856 ft 463 kts 209°
2026-05-09 10:01 18.64261 55.47692 39853 ft 462 kts 209°
2026-05-09 10:01 18.58676 55.44343 39850 ft 462 kts 209°
2026-05-09 10:02 18.53094 55.40999 39848 ft 462 kts 209°
2026-05-09 10:02 18.47490 55.37644 39850 ft 462 kts 209°
2026-05-09 10:03 18.41881 55.34288 39855 ft 462 kts 209°
2026-05-09 10:03 18.36304 55.30955 39855 ft 462 kts 209°
2026-05-09 10:04 18.30705 55.27611 39854 ft 462 kts 209°
2026-05-09 10:04 18.25109 55.24272 39855 ft 462 kts 209°
2026-05-09 10:05 18.19537 55.20951 39855 ft 462 kts 209°
2026-05-09 10:05 18.13875 55.17712 39858 ft 462 kts 204°
2026-05-09 10:06 18.08019 55.14971 39853 ft 461 kts 203°
2026-05-09 10:06 18.02107 55.12313 39854 ft 461 kts 202°
2026-05-09 10:07 17.96211 55.09681 39857 ft 461 kts 202°
2026-05-09 10:07 17.90277 55.07027 39864 ft 461 kts 202°
2026-05-09 10:08 17.84387 55.04387 39857 ft 461 kts 202°
2026-05-09 10:08 17.78505 55.01751 39868 ft 461 kts 202°
2026-05-09 10:09 17.72594 54.99105 39866 ft 461 kts 202°
2026-05-09 10:09 17.66677 54.96457 39878 ft 462 kts 202°
2026-05-09 10:10 17.60798 54.93829 39866 ft 462 kts 202°
2026-05-09 10:10 17.54858 54.91175 39887 ft 462 kts 202°
2026-05-09 10:11 17.48963 54.88543 39886 ft 462 kts 202°
2026-05-09 10:11 17.43050 54.85906 39900 ft 462 kts 202°
2026-05-09 10:12 17.37141 54.83272 39900 ft 462 kts 202°
2026-05-09 10:12 17.31191 54.80621 39898 ft 462 kts 202°
2026-05-09 10:13 17.25435 54.77640 39906 ft 463 kts 210°
2026-05-09 10:13 17.19976 54.74098 39906 ft 465 kts 211°
2026-05-09 10:14 17.14537 54.70442 39907 ft 466 kts 212°
2026-05-09 10:14 17.09097 54.66778 39905 ft 466 kts 212°
2026-05-09 10:15 17.03624 54.63110 39906 ft 465 kts 212°
2026-05-09 10:15 16.98179 54.59473 39907 ft 465 kts 212°
2026-05-09 10:16 16.92706 54.55821 39903 ft 465 kts 212°
2026-05-09 10:16 16.87270 54.52198 39891 ft 466 kts 211°
2026-05-09 10:17 16.81775 54.48536 39890 ft 467 kts 212°
2026-05-09 10:17 16.76312 54.44891 39878 ft 468 kts 212°
2026-05-09 10:18 16.70826 54.41234 39877 ft 468 kts 212°
2026-05-09 10:18 16.65340 54.37582 39878 ft 467 kts 212°
2026-05-09 10:19 16.59861 54.33938 39878 ft 468 kts 212°
2026-05-09 10:19 16.54363 54.30284 39879 ft 469 kts 212°
2026-05-09 10:20 16.48881 54.26643 39883 ft 469 kts 212°
2026-05-09 10:20 16.43385 54.22995 39885 ft 469 kts 212°
2026-05-09 10:21 16.37879 54.19342 39886 ft 470 kts 212°
2026-05-09 10:21 16.32367 54.15688 39886 ft 470 kts 212°
2026-05-09 10:22 16.26859 54.12039 39889 ft 470 kts 212°
2026-05-09 10:22 16.21346 54.08390 39892 ft 471 kts 212°
2026-05-09 10:23 16.15811 54.04729 39893 ft 471 kts 212°
2026-05-09 10:23 16.10261 54.01059 39899 ft 471 kts 212°
2026-05-09 10:24 16.04736 53.97409 39894 ft 471 kts 212°
2026-05-09 10:24 15.99178 53.93740 39901 ft 471 kts 212°
2026-05-09 10:25 15.93676 53.90109 39901 ft 471 kts 212°
2026-05-09 10:25 15.88130 53.86453 39901 ft 472 kts 212°
2026-05-09 10:26 15.82576 53.82765 39901 ft 472 kts 212°
2026-05-09 10:26 15.77071 53.79073 39901 ft 472 kts 212°
2026-05-09 10:27 15.71701 53.75476 39899 ft 472 kts 212°
2026-05-09 10:27 15.66176 53.71783 39897 ft 472 kts 212°
2026-05-09 10:28 15.60539 53.67949 39900 ft 472 kts 212°
2026-05-09 10:28 15.55932 53.64902 39899 ft 473 kts 212°
2026-05-09 10:29 15.50022 53.61004 39898 ft 473 kts 212°
2026-05-09 10:29 15.45414 53.57948 39899 ft 473 kts 212°
2026-05-09 10:30 15.39850 53.54285 39899 ft 473 kts 211°
2026-05-09 10:30 15.33334 53.50122 39902 ft 473 kts 211°
2026-05-09 10:31 15.28638 53.47131 39902 ft 473 kts 211°
2026-05-09 10:31 15.23041 53.43554 39900 ft 473 kts 211°
2026-05-09 10:32 15.17478 53.39993 39898 ft 473 kts 211°
2026-05-09 10:32 15.11880 53.36409 39897 ft 473 kts 211°
2026-05-09 10:33 15.06279 53.32827 39896 ft 473 kts 211°
2026-05-09 10:33 15.00671 53.29243 39899 ft 473 kts 211°
2026-05-09 10:34 14.95061 53.25659 39906 ft 473 kts 211°
2026-05-09 10:34 14.86705 53.20327 39889 ft 472 kts 211°
2026-05-09 10:35 14.81116 53.16762 39887 ft 472 kts 211°
2026-05-09 10:35 14.75529 53.13202 39903 ft 471 kts 211°
2026-05-09 10:36 14.69957 53.09609 39890 ft 472 kts 214°
2026-05-09 10:36 14.65105 53.05073 39892 ft 473 kts 230°
2026-05-09 10:37 14.61469 52.99443 39892 ft 475 kts 237°
2026-05-09 10:37 14.58131 52.93544 39894 ft 475 kts 238°
2026-05-09 10:38 14.54832 52.87627 39907 ft 475 kts 238°
2026-05-09 10:38 14.51506 52.81727 39907 ft 475 kts 238°
2026-05-09 10:39 14.48162 52.75840 39897 ft 475 kts 238°
2026-05-09 10:39 14.44815 52.69964 39891 ft 475 kts 238°
2026-05-09 10:40 14.41468 52.64093 39894 ft 474 kts 238°
2026-05-09 10:40 14.38201 52.58361 39914 ft 474 kts 238°
2026-05-09 10:41 14.34798 52.52397 39914 ft 474 kts 238°
2026-05-09 10:41 14.31454 52.46541 39900 ft 474 kts 238°
2026-05-09 10:42 14.28108 52.40682 39892 ft 474 kts 238°
2026-05-09 10:42 14.24760 52.34826 39910 ft 474 kts 238°
2026-05-09 10:43 14.21408 52.28967 39892 ft 474 kts 238°
2026-05-09 10:43 14.18084 52.23159 39896 ft 474 kts 238°
2026-05-09 10:44 14.14735 52.17315 39894 ft 473 kts 238°
2026-05-09 10:44 14.11390 52.11480 39894 ft 473 kts 237°
2026-05-09 10:46 14.03011 51.96885 39889 ft 473 kts 237°
2026-05-09 10:46 13.99661 51.91056 39890 ft 473 kts 237°
2026-05-09 10:47 13.96307 51.85226 39894 ft 473 kts 237°
2026-05-09 10:47 13.92954 51.79400 39892 ft 473 kts 237°
2026-05-09 10:48 13.89599 51.73575 39889 ft 472 kts 237°
2026-05-09 10:48 13.86270 51.67798 39887 ft 472 kts 237°
2026-05-09 10:49 13.82914 51.61980 39884 ft 472 kts 237°
2026-05-09 10:49 13.79559 51.56169 39885 ft 472 kts 237°
2026-05-09 10:50 13.76207 51.50365 39887 ft 472 kts 237°
2026-05-09 10:50 13.72854 51.44551 39887 ft 472 kts 238°
2026-05-09 10:51 13.69572 51.38698 39885 ft 472 kts 238°
2026-05-09 10:51 13.66303 51.32831 39879 ft 472 kts 238°
2026-05-09 10:52 13.63025 51.26976 39881 ft 472 kts 238°
2026-05-09 10:52 13.59751 51.21152 39882 ft 472 kts 238°
2026-05-09 10:53 13.56462 51.15309 39877 ft 472 kts 238°
2026-05-09 10:53 13.53165 51.09455 39877 ft 472 kts 238°
2026-05-09 10:54 13.49972 51.03789 39880 ft 472 kts 238°
2026-05-09 10:54 13.46578 50.97770 39878 ft 472 kts 238°
2026-05-09 10:55 13.43310 50.91980 39874 ft 472 kts 238°
2026-05-09 10:55 13.40003 50.86123 39873 ft 472 kts 238°
2026-05-09 10:56 13.36719 50.80311 39871 ft 472 kts 238°
2026-05-09 10:56 13.33423 50.74482 39869 ft 473 kts 238°
2026-05-09 10:57 13.30116 50.68638 39870 ft 473 kts 238°
2026-05-09 10:57 13.26805 50.62790 39871 ft 473 kts 238°
2026-05-09 10:58 13.23517 50.56988 39871 ft 473 kts 238°
2026-05-09 10:58 13.20206 50.51147 39867 ft 473 kts 238°
2026-05-09 10:59 13.16868 50.45282 39867 ft 473 kts 238°
2026-05-09 10:59 13.13549 50.39468 39867 ft 474 kts 238°
2026-05-09 11:00 13.10222 50.33644 39868 ft 474 kts 238°
2026-05-09 11:00 13.06883 50.27799 39867 ft 474 kts 238°
2026-05-09 11:01 13.03555 50.21975 39863 ft 474 kts 238°
2026-05-09 11:01 13.00226 50.16155 39858 ft 475 kts 238°
2026-05-09 11:02 12.96869 50.10289 39858 ft 475 kts 238°
2026-05-09 11:02 12.93522 50.04445 39858 ft 476 kts 238°
2026-05-09 11:03 12.90192 49.98633 39862 ft 476 kts 238°
2026-05-09 11:03 12.86834 49.92777 39853 ft 477 kts 238°
2026-05-09 11:04 12.83470 49.86916 39853 ft 477 kts 238°
2026-05-09 11:04 12.80106 49.81056 39853 ft 477 kts 238°
2026-05-09 11:05 12.76740 49.75198 39853 ft 477 kts 238°
2026-05-09 11:05 12.73386 49.69365 39856 ft 478 kts 238°
2026-05-09 11:06 12.70007 49.63490 39857 ft 478 kts 238°
2026-05-09 11:06 12.66627 49.57619 39854 ft 478 kts 238°
2026-05-09 11:07 12.63329 49.51894 39852 ft 478 kts 238°
2026-05-09 11:07 12.59868 49.45893 39853 ft 478 kts 238°
2026-05-09 11:08 12.56510 49.40071 39853 ft 478 kts 238°
2026-05-09 11:08 12.53127 49.34206 39852 ft 478 kts 238°
2026-05-09 11:09 12.49737 49.28336 39851 ft 479 kts 238°
2026-05-09 11:09 12.46346 49.22468 39851 ft 479 kts 238°
2026-05-09 11:10 12.42953 49.16600 39848 ft 479 kts 238°
2026-05-09 11:10 12.39562 49.10740 39848 ft 479 kts 238°
2026-05-09 11:11 12.36165 49.04873 39841 ft 479 kts 238°
2026-05-09 11:11 12.32770 48.99013 39839 ft 479 kts 238°
2026-05-09 11:12 12.29371 48.93150 39843 ft 479 kts 238°
2026-05-09 11:12 12.25998 48.87334 39840 ft 479 kts 238°
2026-05-09 11:13 12.22598 48.81477 39841 ft 479 kts 238°
2026-05-09 11:13 12.19196 48.75619 39839 ft 479 kts 238°
2026-05-09 11:14 12.15788 48.69755 39840 ft 479 kts 238°
2026-05-09 11:14 12.12383 48.63900 39841 ft 480 kts 238°
2026-05-09 11:15 12.08974 48.58042 39841 ft 480 kts 238°
2026-05-09 11:15 12.05563 48.52183 39833 ft 480 kts 238°
2026-05-09 11:16 12.02179 48.46310 39832 ft 480 kts 239°
2026-05-09 11:16 11.98849 48.40399 39835 ft 480 kts 239°
2026-05-09 11:17 11.95534 48.34517 39835 ft 480 kts 239°
2026-05-09 11:17 11.92191 48.28610 39833 ft 480 kts 239°
2026-05-09 11:18 11.88844 48.22711 39835 ft 480 kts 239°
2026-05-09 11:18 11.86037 48.17768 39833 ft 480 kts 239°
2026-05-09 11:19 11.82706 48.11907 39835 ft 480 kts 239°
2026-05-09 11:19 11.79352 48.06005 39835 ft 481 kts 239°
2026-05-09 11:20 11.75992 48.00098 39835 ft 480 kts 239°
2026-05-09 11:20 11.72636 47.94202 39830 ft 481 kts 239°
2026-05-09 11:21 11.69268 47.88287 39831 ft 482 kts 239°
2026-05-09 11:21 11.65903 47.82381 39832 ft 482 kts 239°
2026-05-09 11:22 11.62530 47.76465 39832 ft 482 kts 239°
2026-05-09 11:22 11.59156 47.70551 39832 ft 482 kts 239°
2026-05-09 11:23 11.55784 47.64644 39831 ft 482 kts 239°
2026-05-09 11:23 11.52408 47.58732 39834 ft 482 kts 239°
2026-05-09 11:24 11.49034 47.52828 39830 ft 482 kts 238°
2026-05-09 11:24 11.45658 47.46926 39827 ft 482 kts 239°
2026-05-09 11:25 11.42284 47.41028 39828 ft 482 kts 239°
2026-05-09 11:25 11.38928 47.35167 39829 ft 481 kts 238°
2026-05-09 11:26 11.35556 47.29285 39829 ft 481 kts 238°
2026-05-09 11:26 11.32185 47.23403 39829 ft 481 kts 238°
2026-05-09 11:27 11.28816 47.17520 39829 ft 481 kts 238°
2026-05-09 11:27 11.25450 47.11647 39834 ft 479 kts 238°
2026-05-09 11:28 11.22082 47.05778 39829 ft 479 kts 238°
2026-05-09 11:28 11.18716 46.99915 39827 ft 479 kts 238°
2026-05-09 11:29 11.15372 46.94094 39827 ft 478 kts 238°
2026-05-09 11:29 11.12014 46.88252 39824 ft 478 kts 238°
2026-05-09 11:30 11.08656 46.82413 39823 ft 477 kts 238°
2026-05-09 11:30 11.05299 46.76580 39823 ft 477 kts 238°
2026-05-09 11:31 11.01940 46.70746 39817 ft 477 kts 238°
2026-05-09 11:31 10.98579 46.64913 39819 ft 478 kts 238°
2026-05-09 11:32 10.95215 46.59077 39818 ft 478 kts 238°
2026-05-09 11:32 10.91845 46.53233 39817 ft 478 kts 238°
2026-05-09 11:33 10.88560 46.47541 39814 ft 478 kts 238°
2026-05-09 11:33 10.83419 46.38657 39816 ft 479 kts 238°
2026-05-09 11:34 10.80052 46.32818 39823 ft 479 kts 238°
2026-05-09 11:34 10.76708 46.26953 39823 ft 479 kts 239°
2026-05-09 11:35 10.73412 46.21102 39824 ft 480 kts 239°
2026-05-09 11:35 10.70088 46.15212 39825 ft 480 kts 239°
2026-05-09 11:36 10.66760 46.09335 39823 ft 480 kts 239°
2026-05-09 11:36 10.63428 46.03459 39832 ft 480 kts 238°
2026-05-09 11:37 10.60092 45.97582 39830 ft 480 kts 239°
2026-05-09 11:37 10.56763 45.91719 39831 ft 478 kts 239°
2026-05-09 11:38 10.53443 45.85873 39831 ft 476 kts 239°
2026-05-09 11:38 10.50126 45.80038 39832 ft 477 kts 239°
2026-05-09 11:39 10.46832 45.74245 39825 ft 476 kts 239°
2026-05-09 11:40 10.41860 45.65507 39823 ft 476 kts 238°
2026-05-09 11:40 10.38546 45.59687 39823 ft 476 kts 238°
2026-05-09 11:41 10.35229 45.53866 39833 ft 476 kts 238°
2026-05-09 11:41 10.31912 45.48045 39835 ft 476 kts 238°
2026-05-09 11:42 10.28591 45.42221 39838 ft 476 kts 239°
2026-05-09 11:42 10.25273 45.36407 39844 ft 476 kts 239°
2026-05-09 11:43 10.21948 45.30584 39846 ft 477 kts 239°
2026-05-09 11:43 10.18644 45.24799 39865 ft 477 kts 239°
2026-05-09 11:44 10.15314 45.18971 39864 ft 477 kts 239°
2026-05-09 11:44 10.11980 45.13140 39868 ft 476 kts 238°
2026-05-09 11:45 10.08659 45.07335 39870 ft 476 kts 239°
2026-05-09 11:45 10.05335 45.01528 39885 ft 476 kts 239°
2026-05-09 11:46 10.01999 44.95703 39882 ft 476 kts 238°
2026-05-09 11:46 9.98673 44.89898 39881 ft 476 kts 238°
2026-05-09 11:47 9.95352 44.84104 39890 ft 476 kts 238°
2026-05-09 11:47 9.92018 44.78292 39890 ft 476 kts 238°
2026-05-09 11:48 9.88696 44.72503 39887 ft 477 kts 238°
2026-05-09 11:48 9.85367 44.66703 39881 ft 476 kts 238°
2026-05-09 11:49 9.82018 44.60873 39876 ft 476 kts 238°
2026-05-09 11:49 9.78685 44.55073 39881 ft 476 kts 238°
2026-05-09 11:50 9.75363 44.49297 39875 ft 476 kts 238°
2026-05-09 11:50 9.72021 44.43486 39875 ft 476 kts 238°
2026-05-09 11:51 9.68687 44.37693 39876 ft 477 kts 238°
2026-05-09 11:51 9.65332 44.31868 39876 ft 477 kts 238°
2026-05-09 11:52 9.61996 44.26076 39877 ft 477 kts 238°
2026-05-09 11:52 9.58659 44.20287 39874 ft 477 kts 239°
2026-05-09 11:53 9.55302 44.14466 39879 ft 477 kts 239°
2026-05-09 11:53 9.51787 44.08744 39881 ft 476 kts 232°
2026-05-09 11:54 9.47740 44.03467 39884 ft 476 kts 230°
2026-05-09 11:54 9.43583 43.98257 39883 ft 476 kts 230°
2026-05-09 11:55 9.39398 43.93041 39884 ft 476 kts 230°
2026-05-09 11:56 9.26901 43.77403 39887 ft 477 kts 230°
2026-05-09 11:57 9.22719 43.72183 39888 ft 478 kts 230°
2026-05-09 11:57 9.18496 43.66981 39896 ft 478 kts 230°
2026-05-09 11:58 9.14275 43.61792 39894 ft 478 kts 230°
2026-05-09 11:58 9.10046 43.56586 39906 ft 479 kts 230°
2026-05-09 11:59 9.05940 43.51527 39905 ft 479 kts 230°
2026-05-09 11:59 9.01718 43.46334 39898 ft 478 kts 230°
2026-05-09 12:00 8.97346 43.41050 39916 ft 479 kts 230°
2026-05-09 12:00 8.93131 43.35821 39914 ft 479 kts 231°
2026-05-09 12:01 8.88923 43.30596 39912 ft 479 kts 230°
2026-05-09 12:01 8.84696 43.25382 39910 ft 479 kts 230°
2026-05-09 12:02 8.80466 43.20183 39910 ft 478 kts 230°
2026-05-09 12:02 8.76265 43.15024 39913 ft 479 kts 230°
2026-05-09 12:03 8.72038 43.09833 39909 ft 478 kts 230°
2026-05-09 12:03 8.67801 43.04632 39907 ft 477 kts 230°
2026-05-09 12:04 8.63575 42.99447 39912 ft 479 kts 231°
2026-05-09 12:04 8.60047 42.95120 39908 ft 479 kts 231°
2026-05-09 12:05 8.55113 42.89069 39910 ft 480 kts 230°
2026-05-09 12:05 8.51555 42.84707 39913 ft 480 kts 231°
2026-05-09 12:06 8.47311 42.79507 39909 ft 480 kts 230°
2026-05-09 12:06 8.43088 42.74334 39909 ft 480 kts 230°
2026-05-09 12:07 8.38839 42.69132 39911 ft 480 kts 230°
2026-05-09 12:07 8.34587 42.63927 39909 ft 480 kts 230°
2026-05-09 12:08 8.30332 42.58722 39913 ft 481 kts 231°
2026-05-09 12:08 8.26062 42.53501 39914 ft 483 kts 231°
2026-05-09 12:09 8.21783 42.48271 39909 ft 483 kts 230°
2026-05-09 12:09 8.17501 42.43047 39909 ft 483 kts 231°
2026-05-09 12:10 8.08919 42.32575 39906 ft 485 kts 231°
2026-05-09 12:11 8.04644 42.27362 39905 ft 485 kts 231°
2026-05-09 12:11 8.00339 42.22116 39907 ft 485 kts 231°
2026-05-09 12:12 7.96035 42.16872 39904 ft 484 kts 231°
2026-05-09 12:12 7.91739 42.11641 39902 ft 483 kts 231°
2026-05-09 12:13 7.87460 42.06431 39899 ft 484 kts 231°
2026-05-09 12:13 7.83160 42.01198 39903 ft 485 kts 231°
2026-05-09 12:14 7.78873 41.95982 39899 ft 484 kts 231°
2026-05-09 12:14 7.74574 41.90753 39900 ft 483 kts 231°
2026-05-09 12:15 7.70283 41.85537 39905 ft 483 kts 231°
2026-05-09 12:15 7.65984 41.80319 39905 ft 484 kts 231°
2026-05-09 12:16 7.61687 41.75111 39902 ft 483 kts 231°
2026-05-09 12:16 7.57374 41.69886 39900 ft 483 kts 231°
2026-05-09 12:17 7.53072 41.64674 39905 ft 483 kts 231°
2026-05-09 12:17 7.48782 41.59479 39906 ft 483 kts 231°
2026-05-09 12:18 7.44486 41.54279 39907 ft 483 kts 231°
2026-05-09 12:18 7.40202 41.49094 39908 ft 482 kts 230°
2026-05-09 12:19 7.35887 41.43873 39908 ft 483 kts 231°
2026-05-09 12:19 7.31577 41.38660 39912 ft 484 kts 231°
2026-05-09 12:20 7.27280 41.33466 39914 ft 484 kts 231°
2026-05-09 12:20 7.22977 41.28255 39912 ft 482 kts 231°
2026-05-09 12:21 7.18759 41.23015 39920 ft 482 kts 232°
2026-05-09 12:21 7.14578 41.17781 39918 ft 482 kts 232°
2026-05-09 12:22 7.10345 41.12501 39927 ft 484 kts 232°
2026-05-09 12:22 7.06127 41.07255 39933 ft 482 kts 231°
2026-05-09 12:23 7.01903 41.02007 39932 ft 482 kts 232°
2026-05-09 12:23 6.97660 40.96736 39935 ft 483 kts 232°
2026-05-09 12:24 6.93455 40.91514 39936 ft 483 kts 232°
2026-05-09 12:24 6.89234 40.86274 39934 ft 482 kts 232°
2026-05-09 12:25 6.84995 40.81014 39939 ft 484 kts 232°
2026-05-09 12:25 6.80749 40.75746 39937 ft 485 kts 232°
2026-05-09 12:26 6.76506 40.70483 39935 ft 485 kts 232°
2026-05-09 12:26 6.72273 40.65219 39934 ft 485 kts 232°
2026-05-09 12:27 6.68003 40.59935 39920 ft 485 kts 232°
2026-05-09 12:27 6.63753 40.54674 39920 ft 485 kts 232°
2026-05-09 12:28 6.59515 40.49426 39924 ft 486 kts 232°
2026-05-09 12:28 6.55238 40.44129 39911 ft 486 kts 232°
2026-05-09 12:29 6.50991 40.38871 39908 ft 485 kts 232°
2026-05-09 12:29 6.46725 40.33591 39898 ft 485 kts 232°
2026-05-09 12:30 6.42475 40.28332 39898 ft 485 kts 231°
2026-05-09 12:30 6.36084 40.20427 39893 ft 485 kts 231°
2026-05-09 12:31 6.29707 40.12544 39888 ft 485 kts 232°
2026-05-09 12:32 6.25462 40.07298 39887 ft 485 kts 232°
2026-05-09 12:32 6.21175 40.02037 39889 ft 485 kts 230°
2026-05-09 12:33 6.16611 39.97037 39892 ft 486 kts 227°
2026-05-09 12:33 6.11956 39.92133 39895 ft 486 kts 227°
2026-05-09 12:34 6.07316 39.87176 39901 ft 486 kts 228°
2026-05-09 12:34 6.02732 39.82217 39904 ft 486 kts 228°
2026-05-09 12:35 5.98130 39.77222 39900 ft 486 kts 227°
2026-05-09 12:35 5.93541 39.72241 39914 ft 486 kts 228°
2026-05-09 12:36 5.88951 39.67250 39908 ft 486 kts 229°
2026-05-09 12:36 5.84587 39.62089 39914 ft 486 kts 231°
2026-05-09 12:37 5.80301 39.56834 39925 ft 486 kts 231°
2026-05-09 12:37 5.75982 39.51598 39925 ft 486 kts 231°
2026-05-09 12:38 5.71628 39.46378 39934 ft 486 kts 231°
2026-05-09 12:38 5.67276 39.41178 39934 ft 486 kts 230°
2026-05-09 12:39 5.62984 39.36057 39938 ft 486 kts 231°
2026-05-09 12:39 5.58685 39.30930 39931 ft 484 kts 230°
2026-05-09 12:40 5.54363 39.25568 39940 ft 484 kts 231°
2026-05-09 12:40 5.50007 39.20416 39940 ft 484 kts 230°
2026-05-09 12:41 5.45622 39.15289 39939 ft 484 kts 230°
2026-05-09 12:41 5.41266 39.10135 39927 ft 484 kts 230°
2026-05-09 12:42 5.36932 39.04971 39927 ft 483 kts 230°
2026-05-09 12:42 5.32611 38.99815 39915 ft 483 kts 231°
2026-05-09 12:43 5.28293 38.94664 39915 ft 482 kts 231°
2026-05-09 12:43 5.23973 38.89515 39915 ft 481 kts 230°
2026-05-09 12:44 5.19675 38.84393 39910 ft 483 kts 230°
2026-05-09 12:44 5.15344 38.79234 39910 ft 483 kts 231°
2026-05-09 12:45 5.11017 38.74081 39912 ft 483 kts 231°
2026-05-09 12:45 5.06690 38.68928 39911 ft 483 kts 230°
2026-05-09 12:46 5.02359 38.63774 39913 ft 482 kts 231°
2026-05-09 12:46 4.98055 38.58651 39920 ft 482 kts 231°
2026-05-09 12:47 4.93731 38.53505 39919 ft 482 kts 231°
2026-05-09 12:47 4.89405 38.48359 39920 ft 482 kts 231°
2026-05-09 12:48 4.85069 38.43203 39925 ft 482 kts 231°
2026-05-09 12:48 4.80744 38.38060 39926 ft 482 kts 231°
2026-05-09 12:49 4.76447 38.32951 39931 ft 482 kts 231°
2026-05-09 12:49 4.72130 38.27820 39931 ft 481 kts 231°
2026-05-09 12:50 4.67818 38.22696 39930 ft 481 kts 231°
2026-05-09 12:50 4.63503 38.17569 39929 ft 481 kts 231°
2026-05-09 12:51 4.59185 38.12439 39931 ft 482 kts 231°
2026-05-09 12:51 4.54865 38.07309 39927 ft 482 kts 231°
2026-05-09 12:52 4.50541 38.02174 39926 ft 481 kts 231°
2026-05-09 12:52 4.46214 37.97038 39914 ft 481 kts 231°
2026-05-09 12:53 4.42621 37.92774 39913 ft 483 kts 231°
2026-05-09 12:53 4.38286 37.87630 39901 ft 483 kts 231°
2026-05-09 12:54 4.33946 37.82480 39903 ft 483 kts 231°
2026-05-09 12:54 4.29610 37.77338 39881 ft 483 kts 230°
2026-05-09 12:55 4.25269 37.72189 39887 ft 483 kts 231°
2026-05-09 12:55 4.20936 37.67052 39869 ft 483 kts 231°
2026-05-09 12:56 4.16615 37.61929 39858 ft 481 kts 231°
2026-05-09 12:56 4.12293 37.56806 39859 ft 480 kts 231°
2026-05-09 12:57 4.07968 37.51679 39844 ft 481 kts 231°
2026-05-09 12:57 4.03654 37.46566 39846 ft 481 kts 231°
2026-05-09 12:58 3.99612 37.41311 39829 ft 479 kts 239°
2026-05-09 12:58 3.96472 37.35438 39828 ft 477 kts 244°
2026-05-09 12:59 3.93531 37.29459 39825 ft 478 kts 245°
2026-05-09 12:59 3.90621 37.23463 39823 ft 480 kts 245°
2026-05-09 13:00 3.87681 37.17444 39815 ft 482 kts 244°
2026-05-09 13:00 3.84723 37.11420 39818 ft 482 kts 244°
2026-05-09 13:01 3.81761 37.05395 39820 ft 482 kts 245°
2026-05-09 13:01 3.78800 36.99375 39814 ft 482 kts 244°
2026-05-09 13:02 3.75856 36.93388 39815 ft 482 kts 244°
2026-05-09 13:02 3.72892 36.87363 39816 ft 482 kts 244°
2026-05-09 13:03 3.69930 36.81342 39815 ft 482 kts 244°
2026-05-09 13:03 3.66972 36.75328 39813 ft 482 kts 244°
2026-05-09 13:04 3.64018 36.69326 39812 ft 479 kts 244°
2026-05-09 13:04 3.61073 36.63345 39814 ft 478 kts 244°
2026-05-09 13:05 3.58132 36.57371 39811 ft 478 kts 244°
2026-05-09 13:05 3.55193 36.51402 39804 ft 478 kts 244°
2026-05-09 13:06 3.52246 36.45418 39807 ft 480 kts 244°
2026-05-09 13:06 3.49291 36.39420 39803 ft 480 kts 244°
2026-05-09 13:07 3.46355 36.33461 39802 ft 480 kts 244°
2026-05-09 13:07 3.43391 36.27449 39801 ft 480 kts 244°
2026-05-09 13:08 3.40435 36.21450 39796 ft 481 kts 244°
2026-05-09 13:08 3.37472 36.15440 39798 ft 481 kts 244°
2026-05-09 13:09 3.34515 36.09442 39801 ft 480 kts 244°
2026-05-09 13:09 3.31555 36.03441 39795 ft 480 kts 244°
2026-05-09 13:10 3.28595 35.97440 39796 ft 480 kts 244°
2026-05-09 13:10 3.25635 35.91441 39798 ft 481 kts 244°
2026-05-09 13:11 3.22693 35.85478 39796 ft 480 kts 244°
2026-05-09 13:11 3.19733 35.79481 39795 ft 480 kts 244°
2026-05-09 13:12 3.16773 35.73483 39797 ft 481 kts 244°
2026-05-09 13:12 3.13811 35.67484 39798 ft 481 kts 244°
2026-05-09 13:13 3.10536 35.61658 39773 ft 481 kts 234°
2026-05-09 13:13 3.06094 35.56721 39772 ft 480 kts 225°
2026-05-09 13:14 3.01303 35.52053 39776 ft 480 kts 224°
2026-05-09 13:16 2.82008 35.33500 39816 ft 481 kts 224°
2026-05-09 13:16 2.77222 35.28874 39816 ft 481 kts 224°
2026-05-09 13:17 2.72408 35.24221 39821 ft 481 kts 224°
2026-05-09 13:17 2.67592 35.19569 39822 ft 481 kts 224°
2026-05-09 13:18 2.62780 35.14921 39822 ft 481 kts 224°
2026-05-09 13:18 2.57968 35.10273 39844 ft 481 kts 224°
2026-05-09 13:19 2.53148 35.05618 39845 ft 481 kts 224°
2026-05-09 13:19 2.48340 35.00975 39876 ft 480 kts 224°
2026-05-09 13:20 2.43686 34.96202 39868 ft 479 kts 228°
2026-05-09 13:20 2.39300 34.91166 39884 ft 479 kts 229°
2026-05-09 13:21 2.34967 34.86099 39898 ft 480 kts 229°
2026-05-09 13:21 2.30664 34.81059 39903 ft 480 kts 229°
2026-05-09 13:22 2.26330 34.75992 39902 ft 479 kts 229°
2026-05-09 13:22 2.21985 34.70918 39906 ft 481 kts 229°
2026-05-09 13:23 2.11039 34.58145 39903 ft 485 kts 229°
2026-05-09 13:24 2.06649 34.53021 39902 ft 485 kts 229°
2026-05-09 13:24 2.02263 34.47904 39891 ft 485 kts 229°
2026-05-09 13:25 1.97904 34.42817 39895 ft 485 kts 229°
2026-05-09 13:26 1.91317 34.35133 39887 ft 485 kts 229°
2026-05-09 13:26 1.86927 34.30013 39876 ft 486 kts 229°
2026-05-09 13:27 1.82524 34.24878 39873 ft 487 kts 229°
2026-05-09 13:27 1.77846 34.19981 39877 ft 486 kts 224°
2026-05-09 13:28 1.73093 34.15205 39875 ft 483 kts 225°
2026-05-09 13:28 1.68385 34.10419 39874 ft 483 kts 225°
2026-05-09 13:29 1.63678 34.05615 39877 ft 483 kts 225°
2026-05-09 13:29 1.58987 34.00821 39875 ft 483 kts 225°
2026-05-09 13:30 1.54289 33.96018 39873 ft 484 kts 225°
2026-05-09 13:30 1.49606 33.91231 39876 ft 483 kts 225°
2026-05-09 13:31 1.44910 33.86430 39877 ft 483 kts 225°
2026-05-09 13:31 1.40220 33.81636 39872 ft 483 kts 225°
2026-05-09 13:32 1.35527 33.76838 39875 ft 483 kts 225°
2026-05-09 13:32 1.28486 33.69641 39682 ft 483 kts 225°
2026-05-09 13:33 1.26134 33.67238 39460 ft 483 kts 225°
2026-05-09 13:33 1.23788 33.64840 39195 ft 481 kts 225°
2026-05-09 13:33 1.21460 33.62461 38707 ft 477 kts 225°
2026-05-09 13:33 1.19138 33.60088 37996 ft 477 kts 225°
2026-05-09 13:34 1.16819 33.57718 37319 ft 477 kts 225°
2026-05-09 13:34 1.14496 33.55344 36647 ft 477 kts 225°
2026-05-09 13:34 1.12176 33.52974 35961 ft 477 kts 226°
2026-05-09 13:34 1.09854 33.50600 35237 ft 478 kts 226°
2026-05-09 13:35 1.07523 33.48219 34491 ft 482 kts 226°
2026-05-09 13:35 1.05170 33.45814 33633 ft 486 kts 226°
2026-05-09 13:35 1.02795 33.43387 32733 ft 489 kts 226°
2026-05-09 13:35 1.00406 33.40945 31848 ft 492 kts 225°
2026-05-09 13:36 0.98004 33.38491 30941 ft 496 kts 225°
2026-05-09 13:36 0.95584 33.36018 30020 ft 500 kts 225°
2026-05-09 13:36 0.93168 33.33550 28925 ft 505 kts 225°
2026-05-09 13:36 0.90713 33.31043 28167 ft 502 kts 225°
2026-05-09 13:37 0.88253 33.28529 27481 ft 497 kts 225°
2026-05-09 13:37 0.85874 33.26098 26809 ft 494 kts 225°
2026-05-09 13:37 0.83496 33.23639 26121 ft 490 kts 227°
2026-05-09 13:37 0.81473 33.20911 25388 ft 489 kts 240°
2026-05-09 13:38 0.80166 33.17790 24681 ft 487 kts 251°
2026-05-09 13:38 0.79200 33.14557 23984 ft 484 kts 253°
2026-05-09 13:38 0.78284 33.11331 23251 ft 481 kts 253°
2026-05-09 13:38 0.77373 33.08136 22512 ft 476 kts 253°
2026-05-09 13:39 0.76467 33.04976 21826 ft 470 kts 253°
2026-05-09 13:39 0.75550 33.01857 21139 ft 464 kts 251°
2026-05-09 13:39 0.74765 32.99884 20685 ft 460 kts 242°
2026-05-09 13:39 0.73126 32.97171 20016 ft 454 kts 235°
2026-05-09 13:40 0.71345 32.94583 19323 ft 449 kts 234°
2026-05-09 13:40 0.69567 32.92031 18667 ft 445 kts 234°
2026-05-09 13:40 0.67810 32.89502 17947 ft 442 kts 234°
2026-05-09 13:40 0.66069 32.86989 17225 ft 437 kts 234°
2026-05-09 13:41 0.64349 32.84500 16540 ft 432 kts 234°
2026-05-09 13:41 0.62657 32.82049 15871 ft 426 kts 234°
2026-05-09 13:41 0.60983 32.79623 15185 ft 422 kts 234°
2026-05-09 13:41 0.59325 32.77221 14508 ft 417 kts 234°
2026-05-09 13:42 0.57689 32.74848 13843 ft 413 kts 234°
2026-05-09 13:42 0.56064 32.72493 13109 ft 409 kts 234°
2026-05-09 13:42 0.54457 32.70164 12421 ft 404 kts 234°
2026-05-09 13:42 0.52867 32.67862 11734 ft 398 kts 234°
2026-05-09 13:43 0.51326 32.65628 11093 ft 394 kts 234°
2026-05-09 13:43 0.49795 32.63405 10816 ft 379 kts 234°
2026-05-09 13:43 0.48339 32.61290 10690 ft 360 kts 234°
2026-05-09 13:43 0.46949 32.59271 10575 ft 343 kts 234°
2026-05-09 13:44 0.45629 32.57356 10449 ft 327 kts 233°
2026-05-09 13:44 0.44365 32.55522 10326 ft 313 kts 234°
2026-05-09 13:44 0.43158 32.53771 10204 ft 300 kts 233°
2026-05-09 13:44 0.41989 32.52077 10079 ft 290 kts 234°
2026-05-09 13:45 0.40841 32.50413 9935 ft 295 kts 234°
2026-05-09 13:45 0.39669 32.48717 9723 ft 298 kts 234°
2026-05-09 13:45 0.38491 32.47011 9337 ft 298 kts 234°
2026-05-09 13:45 0.37336 32.45335 8948 ft 295 kts 234°
2026-05-09 13:46 0.36175 32.43651 8590 ft 293 kts 234°
2026-05-09 13:46 0.35003 32.41987 8260 ft 292 kts 232°
2026-05-09 13:46 0.33513 32.40654 7929 ft 287 kts 206°
2026-05-09 13:46 0.31631 32.40112 7609 ft 282 kts 185°
2026-05-09 13:47 0.29675 32.40160 7321 ft 280 kts 171°
2026-05-09 13:47 0.27797 32.40472 7205 ft 267 kts 168°
2026-05-09 13:47 0.26013 32.40775 7105 ft 254 kts 171°
2026-05-09 13:47 0.24305 32.41019 7003 ft 242 kts 171°
2026-05-09 13:48 0.22680 32.41242 6909 ft 229 kts 171°
2026-05-09 13:48 0.21141 32.41451 6780 ft 219 kts 171°
2026-05-09 13:48 0.19652 32.41655 6535 ft 213 kts 171°
2026-05-09 13:48 0.18261 32.41850 6249 ft 207 kts 171°
2026-05-09 13:49 0.16817 32.42052 5960 ft 193 kts 171°
2026-05-09 13:49 0.15532 32.42232 5721 ft 180 kts 171°
2026-05-09 13:49 0.14340 32.42398 5492 ft 167 kts 171°
2026-05-09 13:49 0.13229 32.42552 5250 ft 156 kts 171°
2026-05-09 13:50 0.12193 32.42701 5030 ft 145 kts 172°
2026-05-09 13:50 0.11226 32.42829 4844 ft 140 kts 172°
2026-05-09 13:50 0.10266 32.42962 4617 ft 139 kts 171°
2026-05-09 13:50 0.09304 32.43104 4452 ft 140 kts 171°
2026-05-09 13:51 0.08338 32.43245 4333 ft 140 kts 172°
2026-05-09 13:51 0.07368 32.43382 4164 ft 141 kts 174°
2026-05-09 13:51 0.06402 32.43509 3987 ft 140 kts 173°
2026-05-09 13:51 0.05450 32.43635 3821 ft 137 kts 173°
2026-05-09 13:52 0.04584 32.43753 3787 ft 98 kts 172°
2026-05-09 13:52 0.04180 32.43812 3785 ft 36 kts 172°
2026-05-09 13:52 0.03932 32.43847 3788 ft 35 kts 172°
2026-05-09 13:52 0.03687 32.43882 3778 ft 36 kts 172°
2026-05-09 13:53 0.03439 32.43915 3784 ft 35 kts 172°
2026-05-09 13:53 0.03194 32.43949 3781 ft 36 kts 173°
2026-05-09 13:53 0.02952 32.44003 3781 ft 35 kts 145°
2026-05-09 13:53 0.02836 32.44103 3776 ft 15 kts 122°
2026-05-09 13:54 0.02863 32.44158 3775 ft 9 kts 18°
2026-05-09 13:54 0.02981 32.44151 3775 ft 25 kts 352°
2026-05-09 13:54 0.03154 32.44128 3782 ft 25 kts 352°
2026-05-09 13:54 0.03325 32.44103 3784 ft 25 kts 352°
2026-05-09 13:55 0.03496 32.44080 3786 ft 25 kts 353°
2026-05-09 13:55 0.03665 32.44056 3783 ft 25 kts 352°
2026-05-09 13:55 0.03834 32.44033 3788 ft 25 kts 352°
2026-05-09 13:55 0.04004 32.44008 3789 ft 25 kts 352°
2026-05-09 13:56 0.04166 32.43992 3787 ft 19 kts 14°
2026-05-09 13:56 0.04213 32.44078 3793 ft 12 kts 80°
2026-05-09 13:56 0.04263 32.44131 3796 ft 11 kts 12°
2026-05-09 13:56 0.04343 32.44124 3788 ft 12 kts 353°
2026-05-09 13:57 0.04423 32.44117 3788 ft 10 kts 11°
2026-05-09 13:57 0.04447 32.44141 3790 ft 0 kts 71°
2026-05-09 13:57 0.04451 32.44154 3796 ft 6 kts 72°
2026-05-09 13:57 0.04453 32.44169 3793 ft 0 kts 81°